*** The Vicarage Weather Feed ***

NOAA NWS Hourly Roundups by Site

Regional Weather Roundup for Omaha, NE

To Select Another Site Choose from List

Select Site:  

000
ASUS43 KOAX 150710
RWRNE

WEATHER ROUNDUP FOR NEBRASKA
NATIONAL WEATHER SERVICE OMAHA NE
100 AM CST FRI NOV 15 2019

NOTES: SATELLITE DATA IS BEING USED TO AUGMENT CLOUD COVER ABOVE
       12000 FEET.
       "FAIR" INDICATES FEW OR NO CLOUDS BELOW 12,000 FEET WITH NO
       SIGNIFICANT WEATHER AND/OR OBSTRUCTIONS TO VISIBILITY.


NEZ001>004-019>022-054>056-150800-
NEBRASKA PANHANDLE

CITY           SKY/WX    TMP DP  RH WIND       PRES   REMARKS
SCOTTSBLUFF    FAIR      33  29  85 E7        30.15F WCI  27
ALLIANCE       FAIR      28  24  85 SE5       30.14F WCI  23
CHADRON        FAIR      29  25  85 CALM      30.11F
GORDON         FAIR      32  29  87 CALM      30.14F
KIMBALL        FAIR      27  25  91 W8        30.16F WCI  19
SIDNEY         FAIR      30  25  81 S10       30.17F WCI  21
$$

NEZ057>060-069>072-079>082-150800-
SOUTHWEST NEBRASKA

CITY           SKY/WX    TMP DP  RH WIND       PRES   REMARKS
NORTH PLATTE   FAIR      38  29  70 SW9       30.22F WCI  31
IMPERIAL       FAIR      34  25  69 S8        30.23F WCI  27
LEXINGTON      FAIR      38  30  73 SW9       30.27S WCI  31
MCCOOK         FAIR      35  27  72 S8        30.26F WCI  29
OGALLALA       FAIR      33  28  83 SW5       30.21S WCI  29
$$

NEZ005>010-023>029-035>040-094-150800-
NORTH CENTRAL NEBRASKA

CITY           SKY/WX    TMP DP  RH WIND       PRES   REMARKS
VALENTINE      FAIR      30  25  81 SW3       30.19S
AINSWORTH      FAIR      38  32  79 SW9       30.20F WCI  32
BROKEN BOW     FAIR      30  23  75 CALM      30.24F
O`NEILL        FAIR      31  28  89 S7        30.24S WCI  24
ORD            FAIR      25  22  88 CALM      30.25S
THEDFORD       FAIR      36  31  83 CALM      30.22F
$$

NEZ041-046>049-061>064-073>077-083>087-150800-
SOUTH CENTRAL NEBRASKA

CITY           SKY/WX    TMP DP  RH WIND       PRES   REMARKS
GRAND ISLAND   FAIR      36  27  69 S9        30.29S WCI  29
AURORA         FAIR      32  28  84 SW8       30.30S WCI  25
HASTINGS       FAIR      33  26  75 S6        30.30S WCI  28
HEBRON         FAIR      33  27  79 SW5       30.34S WCI  28
HOLDREGE       FAIR      37  30  77 SW9       30.28F WCI  30
KEARNEY        FAIR      35  28  75 SW9       30.29S WCI  28
YORK           FAIR      28  25  86 S7        30.31S WCI  21
$$

NEZ011>018-030>034-042>045-150800-
NORTHEAST NEBRASKA

CITY           SKY/WX    TMP DP  RH WIND       PRES   REMARKS
NORFOLK        FAIR      30  25  81 SE5       30.28F WCI  25
ALBION         FAIR      31  27  84 SE5       30.28S WCI  27
BLAIR          FAIR      30  19  63 S6        30.32S WCI  24
COLUMBUS       FAIR      24  22  91 CALM      30.32S
FREMONT        FAIR      26  21  83 CALM      30.32F
TEKAMAH        FAIR      22  18  85 S8        30.32S WCI  12
WAYNE          FAIR      30  26  84 S5        30.29S WCI  25
$$

NEZ050>053-065>068-078-088>093-150800-
SOUTHEAST NEBRASKA

CITY           SKY/WX    TMP DP  RH WIND       PRES   REMARKS
LINCOLN        FAIR      26  20  77 CALM      30.35S
OMAHA EPPLEY   FAIR      27  19  72 SE8       30.35R WCI  19
BEATRICE       FAIR      31  25  78 S6        30.34S WCI  25
FALLS CITY     FAIR      26  18  71 SE3       30.36S
NEBRASKA CITY  FAIR      27  19  71 S6        30.35R WCI  21
PLATTSMOUTH    FAIR      29  19  64 S8        30.34S WCI  22
$$

NEZ044-045-051>053-067-150800-
OMAHA AREA

CITY           SKY/WX    TMP DP  RH WIND       PRES   REMARKS
OMAHA EPPLEY   FAIR      27  19  72 SE8       30.35R WCI  19
BLAIR          FAIR      30  19  63 S6        30.32S WCI  24
FREMONT        FAIR      26  21  83 CALM      30.32F
MILLARD        FAIR      27  20  77 CALM      30.34F
OFFUTT AFB     CLEAR     28  19  69 CALM      30.35S
PLATTSMOUTH    FAIR      29  19  64 S8        30.34S WCI  22
WAHOO          FAIR      25  18  76 S3        30.33S
$$


 

View Past Reports for Omaha, NE.

Products Courtesy of NOAA-NWS
NWS Information Parsing Script by Ken True at Saratoga Weather - Script by SE Lincoln Weather.

This data is offered only as a general guide to local weather conditions. It should not be relied upon in lieu of officially disseminated weather information for determining possible risk to persons or property. This site, including all information contained therein, is made available as is without warranties of any kind, either express or implied. The Vicarage Weather Feed© includes links to other sites for user convenience only. The content of any linked third-party site is not controlled by The Vicarage Weather Feed©. Access to any third-party website through The Vicarage Weather Feed©, regardless of whether or not the third-party site is a linked site, is entirely at the users own risk. Externally sourced content or material is excluded from The Vicarage Weather Feed© copyright and is the copyright and property of the respective provider. Skywarn® and the Skywarn® logo are registered trademarks of the National Oceanic and Atmospheric Administration, used with permission.